Regional Weather Roundup
Issued by NWS Jackson, KY

Home | Current Version | Previous Version | Text Only | Print | Product List | Glossary Off
Versions: 1 2 3 4 5 6 7 8 9 10 11 12 13 14 15 16 17 18 19 20 21 22 23 24 25 26 27 28 29 30 31 32 33 34 35 36 37 38 39 40 41 42 43 44 45 46 47 48 49 50

000
ASUS43 KJKL 041910
RWRJKL

EAST KENTUCKY HOURLY WEATHER ROUNDUP
NATIONAL WEATHER SERVICE JACKSON KY
300 PM EDT SAT JUL 04 2015

NOTE: "FAIR" INDICATES FEW OR NO CLOUDS BELOW 12,000 FEET WITH
NO SIGNIFICANT WEATHER AND/OR OBSTRUCTIONS TO VISIBILITY.

* THESE REPORTS ARE NOT UNDER NWS QUALITY CONTROL AND MAY NOT
  REPORT WEATHER SUCH AS PRECIPITATION AND FOG.

KYZ079-080-083-085-087-088-110-112-115-119-120-042000
...EASTERN KENTUCKY...

CITY           SKY/WX    TMP DP  RH WIND       PRES   REMARKS
JACKSON        PTSUNNY   76  67  73 VRB5      30.03S
LONDON         CLOUDY    79  64  60 SW9       30.02F
SOMERSET*      PTSUNNY   77  64  65 SW5       30.02F
MONTICELLO*    CLOUDY    80  70  71 SW5       30.04S
MIDDLESBORO*   LGT RAIN  78  69  73 W7        30.02S
HARLAN APT*      N/A     77  64  65 N9        30.03F
HAZARD APT*    PTCLDY    79  68  69 CALM      30.01F
BLACK MTN*       N/A     68  63  83 W1          N/A
PIKEVILLE APT* PTSUNNY   73  68  83 N3        30.04S
BIG SANDY*     CLOUDY    73  69  86 CALM      30.03S
MOREHEAD APT*  MOCLDY    77  64  65 N6        30.04S
$$

KYZ035-036-041-042-044-050-067-078-099-042000
...CENTRAL KENTUCKY...

CITY           SKY/WX    TMP DP  RH WIND       PRES   REMARKS
MT STERLING*   PTSUNNY   77  66  69 NE5       30.03S
FLEMING/MASON* CLOUDY    77  64  65 NW5       30.04R
DANVILLE*      PTSUNNY   77  66  69 NE6       30.03R
RICHMOND*      PTSUNNY   77  66  69 N3        30.01F
LEXINGTON      PTSUNNY   80  66  62 NE3       30.02S
FRANKFORT      PTSUNNY   79  64  60 NE5       30.00F
$$

KYZ091>093-OHZ055-061-077-WVZ005-015-034-035-042-042000
...SOUTHERN OHIO/WEST VIRGINIA...

CITY           SKY/WX    TMP DP  RH WIND       PRES   REMARKS
COVINGTON      MOSUNNY   78  62  57 N7        30.02S
COLUMBUS       MOSUNNY   77  55  46 CALM      30.00S
DAYTON         MOSUNNY   79  59  50 VRB3      30.03F
WILMINGTON     SUNNY     78  55  44 MISG      30.02S
HUNTINGTON     CLOUDY    75  66  73 CALM      29.99F
CHARLESTON     PTSUNNY   78  63  59 CALM      30.00F
PINEVILLE*     CLOUDY    72  69  90 MISG      30.09F
BECKLEY        CLOUDY    69  64  84 W5        30.07S
BLUEFIELD      CLOUDY    76  62  62 VRB7      30.08S
$$

VAZ002-007-008-TNZ017-027-036-066-071-042000
...SOUTHWEST VIRGINIA/EAST TENNESSEE...

CITY           SKY/WX    TMP DP  RH WIND       PRES   REMARKS
WISE*          CLOUDY    77  63  61 W6        30.09S
JONESVILLE*      N/A    N/A N/A N/A MISG        N/A
ABINGDON*      CLOUDY    76  68  75 W6        30.06F
BRISTOL        CLOUDY    77  66  68 SW12      30.03F
KNOXVILLE      CLOUDY    75  70  84 SW13      30.02F HAZE
OAK RIDGE      PTSUNNY   79  68  69 S6        30.02F
CROSSVILLE     CLOUDY    75  66  73 W6        30.06F
NASHVILLE      CLOUDY    82  70  66 VRB3      29.99F
$$

...KEY TO REMARKS...
VSB - VISIBILITY IN MILES
WCI - WIND CHILL INDEX
HX  - HEAT INDEX

$$


USA.gov is the U.S. government's official web portal to all federal, state and local government web resources and services.